Year,Month,Day,Hour,Minute,Value (Times are PST for temperature in C)
2006,06,16,00,00,16.40
2006,06,16,00,01,16.40
2006,06,16,00,02,16.40
2006,06,16,00,03,16.40
2006,06,16,00,04,16.40
2006,06,16,00,05,16.40
2006,06,16,00,06,16.40
2006,06,16,00,07,16.40
2006,06,16,00,08,16.30
2006,06,16,00,09,16.30
2006,06,16,00,10,16.30
2006,06,16,00,11,16.30
2006,06,16,00,12,16.30
2006,06,16,00,13,16.30
2006,06,16,00,14,16.30
2006,06,16,00,15,16.30
2006,06,16,00,16,16.30
2006,06,16,00,17,16.30
2006,06,16,00,18,16.30
2006,06,16,00,19,16.30
2006,06,16,00,20,16.30
2006,06,16,00,21,16.30
2006,06,16,00,22,16.30
2006,06,16,00,23,16.30
2006,06,16,00,24,16.30
2006,06,16,00,25,16.20
2006,06,16,00,26,16.20
2006,06,16,00,27,16.20
2006,06,16,00,28,16.20
2006,06,16,00,29,16.20
2006,06,16,00,30,16.20
2006,06,16,00,31,16.20
2006,06,16,00,32,16.20
2006,06,16,00,33,16.20
2006,06,16,00,34,16.20
2006,06,16,00,35,16.20
2006,06,16,00,36,16.20
2006,06,16,00,37,16.20
2006,06,16,00,38,16.20
2006,06,16,00,39,16.20
2006,06,16,00,40,16.20
2006,06,16,00,41,16.10
2006,06,16,00,42,16.10
2006,06,16,00,43,16.10
2006,06,16,00,44,16.10
2006,06,16,00,45,16.10
2006,06,16,00,46,16.10
2006,06,16,00,47,16.10
2006,06,16,00,48,16.10
2006,06,16,00,49,16.10
2006,06,16,00,50,16.10
2006,06,16,00,51,16.10
2006,06,16,00,52,16.10
2006,06,16,00,53,16.00
2006,06,16,00,54,15.90
2006,06,16,00,55,15.90
2006,06,16,00,56,15.90
2006,06,16,00,57,15.90
2006,06,16,00,58,16.00
2006,06,16,00,59,16.00
2006,06,16,01,00,16.10
2006,06,16,01,01,16.10
2006,06,16,01,02,16.10
2006,06,16,01,03,16.10
2006,06,16,01,04,16.00
2006,06,16,01,05,15.90
2006,06,16,01,06,15.90
2006,06,16,01,07,15.90
2006,06,16,01,08,15.90
2006,06,16,01,09,15.90
2006,06,16,01,10,15.90
2006,06,16,01,11,15.80
2006,06,16,01,12,15.80
2006,06,16,01,13,15.80
2006,06,16,01,14,15.80
2006,06,16,01,15,15.80
2006,06,16,01,16,15.80
2006,06,16,01,17,15.80
2006,06,16,01,18,15.80
2006,06,16,01,19,15.70
2006,06,16,01,20,15.70
2006,06,16,01,21,15.70
2006,06,16,01,22,15.60
2006,06,16,01,23,15.60
2006,06,16,01,24,15.60
2006,06,16,01,25,15.60
2006,06,16,01,26,15.60
2006,06,16,01,27,15.60
2006,06,16,01,28,15.60
2006,06,16,01,29,15.60
2006,06,16,01,30,15.50
2006,06,16,01,31,15.50
2006,06,16,01,32,15.50
2006,06,16,01,33,15.50
2006,06,16,01,34,15.50
2006,06,16,01,35,15.50
2006,06,16,01,36,15.50
2006,06,16,01,37,15.50
2006,06,16,01,38,15.50
2006,06,16,01,39,15.40
2006,06,16,01,40,15.40
2006,06,16,01,41,15.40
2006,06,16,01,42,15.40
2006,06,16,01,43,15.40
2006,06,16,01,44,15.40
2006,06,16,01,45,15.40
2006,06,16,01,46,15.40
2006,06,16,01,47,15.40
2006,06,16,01,48,15.40
2006,06,16,01,49,15.40
2006,06,16,01,50,15.40
2006,06,16,01,51,15.40
2006,06,16,01,52,15.40
2006,06,16,01,53,15.40
2006,06,16,01,54,15.40
2006,06,16,01,55,15.40
2006,06,16,01,56,15.30
2006,06,16,01,57,15.30
2006,06,16,01,58,15.30
2006,06,16,01,59,15.30
2006,06,16,02,00,15.30
2006,06,16,02,01,15.30
2006,06,16,02,02,15.30
2006,06,16,02,03,15.30
2006,06,16,02,04,15.30
2006,06,16,02,05,15.30
2006,06,16,02,06,15.20
2006,06,16,02,07,15.20
2006,06,16,02,08,15.20
2006,06,16,02,09,15.20
2006,06,16,02,10,15.10
2006,06,16,02,11,15.10
2006,06,16,02,12,15.00
2006,06,16,02,13,15.00
2006,06,16,02,14,15.00
2006,06,16,02,15,14.90
2006,06,16,02,16,14.90
2006,06,16,02,17,14.80
2006,06,16,02,18,14.80
2006,06,16,02,19,14.80
2006,06,16,02,20,14.80
2006,06,16,02,21,14.70
2006,06,16,02,22,14.70
2006,06,16,02,23,14.60
2006,06,16,02,24,14.60
2006,06,16,02,25,14.60
2006,06,16,02,26,14.50
2006,06,16,02,27,14.50
2006,06,16,02,28,14.50
2006,06,16,02,29,14.40
2006,06,16,02,30,14.40
2006,06,16,02,31,14.40
2006,06,16,02,32,14.40
2006,06,16,02,33,14.30
2006,06,16,02,34,14.30
2006,06,16,02,35,14.20
2006,06,16,02,36,14.20
2006,06,16,02,37,14.20
2006,06,16,02,38,14.20
2006,06,16,02,39,14.20
2006,06,16,02,40,14.20
2006,06,16,02,41,14.20
2006,06,16,02,42,14.20
2006,06,16,02,43,14.20
2006,06,16,02,44,14.20
2006,06,16,02,45,14.10
2006,06,16,02,46,14.10
2006,06,16,02,47,14.10
2006,06,16,02,48,14.00
2006,06,16,02,49,14.00
2006,06,16,02,50,14.00
2006,06,16,02,51,14.00
2006,06,16,02,52,14.00
2006,06,16,02,53,14.00
2006,06,16,02,54,13.90
2006,06,16,02,55,13.90
2006,06,16,02,56,13.90
2006,06,16,02,57,13.90
2006,06,16,02,58,13.90
2006,06,16,02,59,13.90
2006,06,16,03,00,13.90
2006,06,16,03,01,13.80
2006,06,16,03,02,13.80
2006,06,16,03,03,13.80
2006,06,16,03,04,13.80
2006,06,16,03,05,13.70
2006,06,16,03,06,13.70
2006,06,16,03,07,13.70
2006,06,16,03,08,13.70
2006,06,16,03,09,13.70
2006,06,16,03,10,13.70
2006,06,16,03,11,13.70
2006,06,16,03,12,13.70
2006,06,16,03,13,13.60
2006,06,16,03,14,13.60
2006,06,16,03,15,13.60
2006,06,16,03,16,13.50
2006,06,16,03,17,13.50
2006,06,16,03,18,13.50
2006,06,16,03,19,13.40
2006,06,16,03,20,13.40
2006,06,16,03,21,13.30
2006,06,16,03,22,13.30
2006,06,16,03,23,13.30
2006,06,16,03,24,13.20
2006,06,16,03,25,13.10
2006,06,16,03,26,12.90
2006,06,16,03,27,12.80
2006,06,16,03,28,12.80
2006,06,16,03,29,12.60
2006,06,16,03,30,12.50
2006,06,16,03,31,12.40
2006,06,16,03,32,12.30
2006,06,16,03,33,12.20
2006,06,16,03,34,12.20
2006,06,16,03,35,12.10
2006,06,16,03,36,12.10
2006,06,16,03,37,12.00
2006,06,16,03,38,12.00
2006,06,16,03,39,11.90
2006,06,16,03,40,11.90
2006,06,16,03,41,11.90
2006,06,16,03,42,11.90
2006,06,16,03,43,11.90
2006,06,16,03,44,11.90
2006,06,16,03,45,11.90
2006,06,16,03,46,11.90
2006,06,16,03,47,11.90
2006,06,16,03,48,11.80
2006,06,16,03,49,11.80
2006,06,16,03,50,11.80
2006,06,16,03,51,11.80
2006,06,16,03,52,11.80
2006,06,16,03,53,11.80
2006,06,16,03,54,11.70
2006,06,16,03,55,11.70
2006,06,16,03,56,11.70
2006,06,16,03,57,11.70
2006,06,16,03,58,11.70
2006,06,16,03,59,11.60
2006,06,16,04,00,11.60
2006,06,16,04,01,11.60
2006,06,16,04,02,11.60
2006,06,16,04,03,11.60
2006,06,16,04,04,11.60
2006,06,16,04,05,11.60
2006,06,16,04,06,11.60
2006,06,16,04,07,11.60
2006,06,16,04,08,11.60
2006,06,16,04,09,11.60
2006,06,16,04,10,11.70
2006,06,16,04,11,11.70
2006,06,16,04,12,11.70
2006,06,16,04,13,11.70
2006,06,16,04,14,11.70
2006,06,16,04,15,11.80
2006,06,16,04,16,11.80
2006,06,16,04,17,11.80
2006,06,16,04,18,11.80
2006,06,16,04,19,11.80
2006,06,16,04,20,11.80
2006,06,16,04,21,11.80
2006,06,16,04,22,11.80
2006,06,16,04,23,11.80
2006,06,16,04,24,11.80
2006,06,16,04,25,11.90
2006,06,16,04,26,11.90
2006,06,16,04,27,11.90
2006,06,16,04,28,11.90
2006,06,16,04,29,11.90
2006,06,16,04,30,11.90
2006,06,16,04,31,11.90
2006,06,16,04,32,11.90
2006,06,16,04,33,11.90
2006,06,16,04,34,11.90
2006,06,16,04,35,11.90
2006,06,16,04,36,11.90
2006,06,16,04,37,11.90
2006,06,16,04,38,11.90
2006,06,16,04,39,11.90
2006,06,16,04,40,11.90
2006,06,16,04,41,11.90
2006,06,16,04,42,11.90
2006,06,16,04,43,11.90
2006,06,16,04,44,11.90
2006,06,16,04,45,11.90
2006,06,16,04,46,11.90
2006,06,16,04,47,11.90
2006,06,16,04,48,11.90
2006,06,16,04,49,11.90
2006,06,16,04,50,11.90
2006,06,16,04,51,11.90
2006,06,16,04,52,11.90
2006,06,16,04,53,11.90
2006,06,16,04,54,11.90
2006,06,16,04,55,11.90
2006,06,16,04,56,11.90
2006,06,16,04,57,11.90
2006,06,16,04,58,11.90
2006,06,16,04,59,11.90
2006,06,16,05,00,11.90
2006,06,16,05,01,11.90
2006,06,16,05,02,11.90
2006,06,16,05,03,11.90
2006,06,16,05,04,11.80
2006,06,16,05,05,11.80
2006,06,16,05,06,11.80
2006,06,16,05,07,11.90
2006,06,16,05,08,11.90
2006,06,16,05,09,11.90
2006,06,16,05,10,11.90
2006,06,16,05,11,11.80
2006,06,16,05,12,11.80
2006,06,16,05,13,11.80
2006,06,16,05,14,11.80
2006,06,16,05,15,11.80
2006,06,16,05,16,11.90
2006,06,16,05,17,11.90
2006,06,16,05,18,11.90
2006,06,16,05,19,11.90
2006,06,16,05,20,11.90
2006,06,16,05,21,11.90
2006,06,16,05,22,11.90
2006,06,16,05,23,12.00
2006,06,16,05,24,12.00
2006,06,16,05,25,12.00
2006,06,16,05,26,12.00
2006,06,16,05,27,12.10
2006,06,16,05,28,12.10
2006,06,16,05,29,12.10
2006,06,16,05,30,12.10
2006,06,16,05,31,12.10
2006,06,16,05,32,12.10
2006,06,16,05,33,12.10
2006,06,16,05,34,12.10
2006,06,16,05,35,12.10
2006,06,16,05,36,12.10
2006,06,16,05,37,12.10
2006,06,16,05,38,12.10
2006,06,16,05,39,12.10
2006,06,16,05,40,12.10
2006,06,16,05,41,12.10
2006,06,16,05,42,12.10
2006,06,16,05,43,12.20
2006,06,16,05,44,12.20
2006,06,16,05,45,12.20
2006,06,16,05,46,12.30
2006,06,16,05,47,12.30
2006,06,16,05,48,12.30
2006,06,16,05,49,12.30
2006,06,16,05,50,12.40
2006,06,16,05,51,12.40
2006,06,16,05,52,12.30
2006,06,16,05,53,12.30
2006,06,16,05,54,12.30
2006,06,16,05,55,12.40
2006,06,16,05,56,12.40
2006,06,16,05,57,12.40
2006,06,16,05,58,12.40
2006,06,16,05,59,12.40
2006,06,16,06,00,12.40
2006,06,16,06,01,12.40
2006,06,16,06,02,12.40
2006,06,16,06,03,12.50
2006,06,16,06,04,12.50
2006,06,16,06,05,12.50
2006,06,16,06,06,12.50
2006,06,16,06,07,12.60
2006,06,16,06,08,12.60
2006,06,16,06,09,12.60
2006,06,16,06,10,12.60
2006,06,16,06,11,12.60
2006,06,16,06,12,12.60
2006,06,16,06,13,12.60
2006,06,16,06,14,12.70
2006,06,16,06,15,12.70
2006,06,16,06,16,12.80
2006,06,16,06,17,12.80
2006,06,16,06,18,12.80
2006,06,16,06,19,12.80
2006,06,16,06,20,12.80
2006,06,16,06,21,12.80
2006,06,16,06,22,12.80
2006,06,16,06,23,12.80
2006,06,16,06,24,12.80
2006,06,16,06,25,12.80
2006,06,16,06,26,12.80
2006,06,16,06,27,12.80
2006,06,16,06,28,12.80
2006,06,16,06,29,12.80
2006,06,16,06,30,12.80
2006,06,16,06,31,12.80
2006,06,16,06,32,12.80
2006,06,16,06,33,12.80
2006,06,16,06,34,12.80
2006,06,16,06,35,12.80
2006,06,16,06,36,12.80
2006,06,16,06,37,12.90
2006,06,16,06,38,12.90
2006,06,16,06,39,12.90
2006,06,16,06,40,12.90
2006,06,16,06,41,13.00
2006,06,16,06,42,13.00
2006,06,16,06,43,13.10
2006,06,16,06,44,13.10
2006,06,16,06,45,13.20
2006,06,16,06,46,13.30
2006,06,16,06,47,13.30
2006,06,16,06,48,13.30
2006,06,16,06,49,13.40
2006,06,16,06,50,13.50
2006,06,16,06,51,13.50
2006,06,16,06,52,13.60
2006,06,16,06,53,13.60
2006,06,16,06,54,13.70
2006,06,16,06,55,13.70
2006,06,16,06,56,13.80
2006,06,16,06,57,13.80
2006,06,16,06,58,13.80
2006,06,16,06,59,13.90
2006,06,16,07,00,13.90
2006,06,16,07,01,13.90
2006,06,16,07,02,13.90
2006,06,16,07,03,14.00
2006,06,16,07,04,14.00
2006,06,16,07,05,14.10
2006,06,16,07,06,14.20
2006,06,16,07,07,14.20
2006,06,16,07,08,14.40
2006,06,16,07,09,14.40
2006,06,16,07,10,14.50
2006,06,16,07,11,14.50
2006,06,16,07,12,14.50
2006,06,16,07,13,14.60
2006,06,16,07,14,14.60
2006,06,16,07,15,14.60
2006,06,16,07,16,14.70
2006,06,16,07,17,14.70
2006,06,16,07,18,14.70
2006,06,16,07,19,14.80
2006,06,16,07,20,14.80
2006,06,16,07,21,14.80
2006,06,16,07,22,14.80
2006,06,16,07,23,14.80
2006,06,16,07,24,14.80
2006,06,16,07,25,14.80
2006,06,16,07,26,14.90
2006,06,16,07,27,14.90
2006,06,16,07,28,14.90
2006,06,16,07,29,15.00
2006,06,16,07,30,15.10
2006,06,16,07,31,15.20
2006,06,16,07,32,15.30
2006,06,16,07,33,15.30
2006,06,16,07,34,15.40
2006,06,16,07,35,15.40
2006,06,16,07,36,15.40
2006,06,16,07,37,15.40
2006,06,16,07,38,15.40
2006,06,16,07,39,15.40
2006,06,16,07,40,15.50
2006,06,16,07,41,15.50
2006,06,16,07,42,15.50
2006,06,16,07,43,15.60
2006,06,16,07,44,15.80
2006,06,16,07,45,15.80
2006,06,16,07,46,15.80
2006,06,16,07,47,15.90
2006,06,16,07,48,16.00
2006,06,16,07,49,16.20
2006,06,16,07,50,16.30
2006,06,16,07,51,16.40
2006,06,16,07,52,16.50
2006,06,16,07,53,16.70
2006,06,16,07,54,16.80
2006,06,16,07,55,16.90
2006,06,16,07,56,17.10
2006,06,16,07,57,17.20
2006,06,16,07,58,17.30
2006,06,16,07,59,17.30
2006,06,16,08,00,17.40
2006,06,16,08,01,17.40
2006,06,16,08,02,17.40
2006,06,16,08,03,17.30
2006,06,16,08,04,17.30
2006,06,16,08,05,17.20
2006,06,16,08,06,17.20
2006,06,16,08,07,17.20
2006,06,16,08,08,17.20
2006,06,16,08,09,17.20
2006,06,16,08,10,17.20
2006,06,16,08,11,17.30
2006,06,16,08,12,17.30
2006,06,16,08,13,17.30
2006,06,16,08,14,17.20
2006,06,16,08,15,17.20
2006,06,16,08,16,17.10
2006,06,16,08,17,17.10
2006,06,16,08,18,17.10
2006,06,16,08,19,17.10
2006,06,16,08,20,17.10
2006,06,16,08,21,17.10
2006,06,16,08,22,17.00
2006,06,16,08,23,17.00
2006,06,16,08,24,17.00
2006,06,16,08,25,17.10
2006,06,16,08,26,17.10
2006,06,16,08,27,17.10
2006,06,16,08,28,17.10
2006,06,16,08,29,17.00
2006,06,16,08,30,17.00
2006,06,16,08,31,17.00
2006,06,16,08,32,16.90
2006,06,16,08,33,16.90
2006,06,16,08,34,16.80
2006,06,16,08,35,16.70
2006,06,16,08,36,16.70
2006,06,16,08,37,16.70
2006,06,16,08,38,16.60
2006,06,16,08,39,16.60
2006,06,16,08,40,16.50
2006,06,16,08,41,16.40
2006,06,16,08,42,16.40
2006,06,16,08,43,16.30
2006,06,16,08,44,16.00
2006,06,16,08,45,15.90
2006,06,16,08,46,15.90
2006,06,16,08,47,15.90
2006,06,16,08,48,16.00
2006,06,16,08,49,16.20
2006,06,16,08,50,16.30
2006,06,16,08,51,16.30
2006,06,16,08,52,16.30
2006,06,16,08,53,16.40
2006,06,16,08,54,16.40
2006,06,16,08,55,16.50
2006,06,16,08,56,16.60
2006,06,16,08,57,16.60
2006,06,16,08,58,16.70
2006,06,16,08,59,16.70
2006,06,16,09,00,16.80
2006,06,16,09,01,16.80
2006,06,16,09,02,16.80
2006,06,16,09,03,16.90
2006,06,16,09,04,16.80
2006,06,16,09,05,16.90
2006,06,16,09,06,16.90
2006,06,16,09,07,16.90
2006,06,16,09,08,16.90
2006,06,16,09,09,17.00
2006,06,16,09,10,17.00
2006,06,16,09,11,17.00
2006,06,16,09,12,16.90
2006,06,16,09,13,16.90
2006,06,16,09,14,16.90
2006,06,16,09,15,16.90
2006,06,16,09,16,17.00
2006,06,16,09,17,17.00
2006,06,16,09,18,17.00
2006,06,16,09,19,17.00
2006,06,16,09,20,16.90
2006,06,16,09,21,16.90
2006,06,16,09,22,16.90
2006,06,16,09,23,17.00
2006,06,16,09,24,17.10
2006,06,16,09,25,17.10
2006,06,16,09,26,17.10
2006,06,16,09,27,17.10
2006,06,16,09,28,17.20
2006,06,16,09,29,17.40
2006,06,16,09,30,17.50
2006,06,16,09,31,17.50
2006,06,16,09,32,17.50
2006,06,16,09,33,17.40
2006,06,16,09,34,17.30
2006,06,16,09,35,17.00
2006,06,16,09,36,17.00
2006,06,16,09,37,17.00
2006,06,16,09,38,17.10
2006,06,16,09,39,17.10
2006,06,16,09,40,16.90
2006,06,16,09,41,16.90
2006,06,16,09,42,17.00
2006,06,16,09,43,17.00
2006,06,16,09,44,17.10
2006,06,16,09,45,17.20
2006,06,16,09,46,17.30
2006,06,16,09,47,17.40
2006,06,16,09,48,17.50
2006,06,16,09,49,17.50
2006,06,16,09,50,17.50
2006,06,16,09,51,17.60
2006,06,16,09,52,17.60
2006,06,16,09,53,17.70
2006,06,16,09,54,17.70
2006,06,16,09,55,17.70
2006,06,16,09,56,17.70
2006,06,16,09,57,17.80
2006,06,16,09,58,17.80
2006,06,16,09,59,17.80
2006,06,16,10,00,17.80
2006,06,16,10,01,17.70
2006,06,16,10,02,17.60
2006,06,16,10,03,17.60
2006,06,16,10,04,17.60
2006,06,16,10,05,17.70
2006,06,16,10,06,17.80
2006,06,16,10,07,17.90
2006,06,16,10,08,17.90
2006,06,16,10,09,17.90
2006,06,16,10,10,17.90
2006,06,16,10,11,18.00
2006,06,16,10,12,18.10
2006,06,16,10,13,18.10
2006,06,16,10,14,18.10
2006,06,16,10,15,18.00
2006,06,16,10,16,17.90
2006,06,16,10,17,17.90
2006,06,16,10,18,17.90
2006,06,16,10,19,17.90
2006,06,16,10,20,17.80
2006,06,16,10,21,17.80
2006,06,16,10,22,17.70
2006,06,16,10,23,17.70
2006,06,16,10,24,17.70
2006,06,16,10,25,17.80
2006,06,16,10,26,17.90
2006,06,16,10,27,18.00
2006,06,16,10,28,18.10
2006,06,16,10,29,18.10
2006,06,16,10,30,18.10
2006,06,16,10,31,18.10
2006,06,16,10,32,18.20
2006,06,16,10,33,18.20
2006,06,16,10,34,18.20
2006,06,16,10,35,18.20
2006,06,16,10,36,18.20
2006,06,16,10,37,18.20
2006,06,16,10,38,18.20
2006,06,16,10,39,18.20
2006,06,16,10,40,18.20
2006,06,16,10,41,18.20
2006,06,16,10,42,18.30
2006,06,16,10,43,18.40
2006,06,16,10,44,18.40
2006,06,16,10,45,18.30
2006,06,16,10,46,18.30
2006,06,16,10,47,18.30
2006,06,16,10,48,18.30
2006,06,16,10,49,18.30
2006,06,16,10,50,18.20
2006,06,16,10,51,18.20
2006,06,16,10,52,18.10
2006,06,16,10,53,18.10
2006,06,16,10,54,17.90
2006,06,16,10,55,17.80
2006,06,16,10,56,17.70
2006,06,16,10,57,17.70
2006,06,16,10,58,17.70
2006,06,16,10,59,17.70
2006,06,16,11,00,17.70
2006,06,16,11,01,17.70
2006,06,16,11,02,17.70
2006,06,16,11,03,17.80
2006,06,16,11,04,17.80
2006,06,16,11,05,17.70
2006,06,16,11,06,17.70
2006,06,16,11,07,17.60
2006,06,16,11,08,17.60
2006,06,16,11,09,17.50
2006,06,16,11,10,17.40
2006,06,16,11,11,17.40
2006,06,16,11,12,17.40
2006,06,16,11,13,17.40
2006,06,16,11,14,17.50
2006,06,16,11,15,17.50
2006,06,16,11,16,17.50
2006,06,16,11,17,17.50
2006,06,16,11,18,17.60
2006,06,16,11,19,17.60
2006,06,16,11,20,17.60
2006,06,16,11,21,17.60
2006,06,16,11,22,17.50
2006,06,16,11,23,17.50
2006,06,16,11,24,17.50
2006,06,16,11,25,17.50
2006,06,16,11,26,17.50
2006,06,16,11,27,17.50
2006,06,16,11,28,17.40
2006,06,16,11,29,17.40
2006,06,16,11,30,17.40
2006,06,16,11,31,17.30
2006,06,16,11,32,17.30
2006,06,16,11,33,17.30
2006,06,16,11,34,17.30
2006,06,16,11,35,17.30
2006,06,16,11,36,17.20
2006,06,16,11,37,17.00
2006,06,16,11,38,17.00
2006,06,16,11,39,16.90
2006,06,16,11,40,16.90
2006,06,16,11,41,16.90
2006,06,16,11,42,16.90
2006,06,16,11,43,16.90
2006,06,16,11,44,16.90
2006,06,16,11,45,16.90
2006,06,16,11,46,16.80
2006,06,16,11,47,16.80
2006,06,16,11,48,16.60
2006,06,16,11,49,16.50
2006,06,16,11,50,16.40
2006,06,16,11,51,16.30
2006,06,16,11,52,16.30
2006,06,16,11,53,16.30
2006,06,16,11,54,16.30
2006,06,16,11,55,16.20
2006,06,16,11,56,16.20
2006,06,16,11,57,16.10
2006,06,16,11,58,16.10
2006,06,16,11,59,16.10
2006,06,16,12,00,16.10
2006,06,16,12,01,16.10
2006,06,16,12,02,16.10
2006,06,16,12,03,16.10
2006,06,16,12,04,16.10
2006,06,16,12,05,16.10
2006,06,16,12,06,16.10
2006,06,16,12,07,16.10
2006,06,16,12,08,16.10
2006,06,16,12,09,16.10
2006,06,16,12,10,16.10
2006,06,16,12,11,16.10
2006,06,16,12,12,16.30
2006,06,16,12,13,16.30
2006,06,16,12,14,16.30
2006,06,16,12,15,16.40
2006,06,16,12,16,16.40
2006,06,16,12,17,16.40
2006,06,16,12,18,16.40
2006,06,16,12,19,16.40
2006,06,16,12,20,16.30
2006,06,16,12,21,16.30
2006,06,16,12,22,16.30
2006,06,16,12,23,16.30
2006,06,16,12,24,16.30
2006,06,16,12,25,16.30
2006,06,16,12,26,16.30
2006,06,16,12,27,16.40
2006,06,16,12,28,16.40
2006,06,16,12,29,16.40
2006,06,16,12,30,16.60
2006,06,16,12,31,16.60
2006,06,16,12,32,16.60
2006,06,16,12,33,16.70
2006,06,16,12,34,16.70
2006,06,16,12,35,16.80
2006,06,16,12,36,16.90
2006,06,16,12,37,17.00
2006,06,16,12,38,17.10
2006,06,16,12,39,17.30
2006,06,16,12,40,17.30
2006,06,16,12,41,17.30
2006,06,16,12,42,17.40
2006,06,16,12,43,17.40
2006,06,16,12,44,17.50
2006,06,16,12,45,17.50
2006,06,16,12,46,17.60
2006,06,16,12,47,17.70
2006,06,16,12,48,17.80
2006,06,16,12,49,17.80
2006,06,16,12,50,17.90
2006,06,16,12,51,17.90
2006,06,16,12,52,17.90
2006,06,16,12,53,17.90
2006,06,16,12,54,17.90
2006,06,16,12,55,17.90
2006,06,16,12,56,17.90
2006,06,16,12,57,17.80
2006,06,16,12,58,17.70
2006,06,16,12,59,17.70
2006,06,16,13,00,17.70
2006,06,16,13,01,17.60
2006,06,16,13,02,17.60
2006,06,16,13,03,17.50
2006,06,16,13,04,17.50
2006,06,16,13,05,17.50
2006,06,16,13,06,17.50
2006,06,16,13,07,17.50
2006,06,16,13,08,17.50
2006,06,16,13,09,17.50
2006,06,16,13,10,17.60
2006,06,16,13,11,17.70
2006,06,16,13,12,17.80
2006,06,16,13,13,17.90
2006,06,16,13,14,18.00
2006,06,16,13,15,18.10
2006,06,16,13,16,18.10
2006,06,16,13,17,18.10
2006,06,16,13,18,18.10
2006,06,16,13,19,18.10
2006,06,16,13,20,18.20
2006,06,16,13,21,18.20
2006,06,16,13,22,18.30
2006,06,16,13,23,18.40
2006,06,16,13,24,18.50
2006,06,16,13,25,18.50
2006,06,16,13,26,18.60
2006,06,16,13,27,18.60
2006,06,16,13,28,18.60
2006,06,16,13,29,18.70
2006,06,16,13,30,18.70
2006,06,16,13,31,18.80
2006,06,16,13,32,18.80
2006,06,16,13,33,18.80
2006,06,16,13,34,18.70
2006,06,16,13,35,18.60
2006,06,16,13,36,18.50
2006,06,16,13,37,18.50
2006,06,16,13,38,18.50
2006,06,16,13,39,18.50
2006,06,16,13,40,18.60
2006,06,16,13,41,18.70
2006,06,16,13,42,18.90
2006,06,16,13,43,19.00
2006,06,16,13,44,19.10
2006,06,16,13,45,19.20
2006,06,16,13,46,19.20
2006,06,16,13,47,19.30
2006,06,16,13,48,19.20
2006,06,16,13,49,19.20
2006,06,16,13,50,19.20
2006,06,16,13,51,19.10
2006,06,16,13,52,19.10
2006,06,16,13,53,19.10
2006,06,16,13,54,19.20
2006,06,16,13,55,19.20
2006,06,16,13,56,19.20
2006,06,16,13,57,19.20
2006,06,16,13,58,19.10
2006,06,16,13,59,19.10
2006,06,16,14,00,19.10
2006,06,16,14,01,19.10
2006,06,16,14,02,19.10
2006,06,16,14,03,19.10
2006,06,16,14,04,19.10
2006,06,16,14,05,19.10
2006,06,16,14,06,19.10
2006,06,16,14,07,19.10
2006,06,16,14,08,19.10
2006,06,16,14,09,19.10
2006,06,16,14,10,19.10
2006,06,16,14,11,19.10
2006,06,16,14,12,19.10
2006,06,16,14,13,19.10
2006,06,16,14,14,19.10
2006,06,16,14,15,19.10
2006,06,16,14,16,19.10
2006,06,16,14,17,19.10
2006,06,16,14,18,19.10
2006,06,16,14,19,19.10
2006,06,16,14,20,19.10
2006,06,16,14,21,19.10
2006,06,16,14,22,19.20
2006,06,16,14,23,19.20
2006,06,16,14,24,19.20
2006,06,16,14,25,19.20
2006,06,16,14,26,19.10
2006,06,16,14,27,19.10
2006,06,16,14,28,19.10
2006,06,16,14,29,19.10
2006,06,16,14,30,19.10
2006,06,16,14,31,19.10
2006,06,16,14,32,19.10
2006,06,16,14,33,19.10
2006,06,16,14,34,19.10
2006,06,16,14,35,19.10
2006,06,16,14,36,19.10
2006,06,16,14,37,19.20
2006,06,16,14,38,19.20
2006,06,16,14,39,19.30
2006,06,16,14,40,19.30
2006,06,16,14,41,19.40
2006,06,16,14,42,19.40
2006,06,16,14,43,19.40
2006,06,16,14,44,19.40
2006,06,16,14,45,19.40
2006,06,16,14,46,19.40
2006,06,16,14,47,19.30
2006,06,16,14,48,19.30
2006,06,16,14,49,19.30
2006,06,16,14,50,19.30
2006,06,16,14,51,19.20
2006,06,16,14,52,19.20
2006,06,16,14,53,19.20
2006,06,16,14,54,19.20
2006,06,16,14,55,19.30
2006,06,16,14,56,19.40
2006,06,16,14,57,19.40
2006,06,16,14,58,19.50
2006,06,16,14,59,19.50
2006,06,16,15,00,19.60
2006,06,16,15,01,19.70
2006,06,16,15,02,19.90
2006,06,16,15,03,19.90
2006,06,16,15,04,20.00
2006,06,16,15,05,20.10
2006,06,16,15,06,20.10
2006,06,16,15,07,20.00
2006,06,16,15,08,19.90
2006,06,16,15,09,19.90
2006,06,16,15,10,20.00
2006,06,16,15,11,20.10
2006,06,16,15,12,20.20
2006,06,16,15,13,20.20
2006,06,16,15,14,20.30
2006,06,16,15,15,20.40
2006,06,16,15,16,20.40
2006,06,16,15,17,20.40
2006,06,16,15,18,20.20
2006,06,16,15,19,20.20
2006,06,16,15,20,20.30
2006,06,16,15,21,20.30
2006,06,16,15,22,20.30
2006,06,16,15,23,20.20
2006,06,16,15,24,20.20
2006,06,16,15,25,20.10
2006,06,16,15,26,20.00
2006,06,16,15,27,19.90
2006,06,16,15,28,19.90
2006,06,16,15,29,19.90
2006,06,16,15,30,19.80
2006,06,16,15,31,19.70
2006,06,16,15,32,19.60
2006,06,16,15,33,19.60
2006,06,16,15,34,19.60
2006,06,16,15,35,19.50
2006,06,16,15,36,19.50
2006,06,16,15,37,19.40
2006,06,16,15,38,19.40
2006,06,16,15,39,19.40
2006,06,16,15,40,19.30
2006,06,16,15,41,19.40
2006,06,16,15,42,19.40
2006,06,16,15,43,19.40
2006,06,16,15,44,19.50
2006,06,16,15,45,19.40
2006,06,16,15,46,19.40
2006,06,16,15,47,19.50
2006,06,16,15,48,19.50
2006,06,16,15,49,19.60
2006,06,16,15,50,19.50
2006,06,16,15,51,19.50
2006,06,16,15,52,19.50
2006,06,16,15,53,19.60
2006,06,16,15,54,19.70
2006,06,16,15,55,19.80
2006,06,16,15,56,19.80
2006,06,16,15,57,19.80
2006,06,16,15,58,19.70
2006,06,16,15,59,19.60
2006,06,16,16,00,19.40
2006,06,16,16,01,19.30
2006,06,16,16,02,19.40
2006,06,16,16,03,19.40
2006,06,16,16,04,19.50
2006,06,16,16,05,19.60
2006,06,16,16,06,19.60
2006,06,16,16,07,19.70
2006,06,16,16,08,19.70
2006,06,16,16,09,19.80
2006,06,16,16,10,19.70
2006,06,16,16,11,19.70
2006,06,16,16,12,19.60
2006,06,16,16,13,19.50
2006,06,16,16,14,19.50
2006,06,16,16,15,19.50
2006,06,16,16,16,19.60
2006,06,16,16,17,19.60
2006,06,16,16,18,19.60
2006,06,16,16,19,19.70
2006,06,16,16,20,19.70
2006,06,16,16,21,19.60
2006,06,16,16,22,19.60
2006,06,16,16,23,19.40
2006,06,16,16,24,19.40
2006,06,16,16,25,19.40
2006,06,16,16,26,19.40
2006,06,16,16,27,19.50
2006,06,16,16,28,19.50
2006,06,16,16,29,19.40
2006,06,16,16,30,19.40
2006,06,16,16,31,19.40
2006,06,16,16,32,19.40
2006,06,16,16,33,19.30
2006,06,16,16,34,19.30
2006,06,16,16,35,19.30
2006,06,16,16,36,19.10
2006,06,16,16,37,19.10
2006,06,16,16,38,19.10
2006,06,16,16,39,19.10
2006,06,16,16,40,19.10
2006,06,16,16,41,19.00
2006,06,16,16,42,18.90
2006,06,16,16,43,18.90
2006,06,16,16,44,18.90
2006,06,16,16,45,18.90
2006,06,16,16,46,18.90
2006,06,16,16,47,18.90
2006,06,16,16,48,18.90
2006,06,16,16,49,18.90
2006,06,16,16,50,18.90
2006,06,16,16,51,18.80
2006,06,16,16,52,18.80
2006,06,16,16,53,18.70
2006,06,16,16,54,18.70
2006,06,16,16,55,18.80
2006,06,16,16,56,18.80
2006,06,16,16,57,18.90
2006,06,16,16,58,19.00
2006,06,16,16,59,19.10
2006,06,16,17,00,19.10
2006,06,16,17,01,19.30
2006,06,16,17,02,19.40
2006,06,16,17,03,19.40
2006,06,16,17,04,19.40
2006,06,16,17,05,19.40
2006,06,16,17,06,19.40
2006,06,16,17,07,19.30
2006,06,16,17,08,19.20
2006,06,16,17,09,19.10
2006,06,16,17,10,19.10
2006,06,16,17,11,19.10
2006,06,16,17,12,19.10
2006,06,16,17,13,19.10
2006,06,16,17,14,19.10
2006,06,16,17,15,19.10
2006,06,16,17,16,19.10
2006,06,16,17,17,19.10
2006,06,16,17,18,19.20
2006,06,16,17,19,19.20